EW0624 Weather Reports


Display with metric or nautical units.
time (UTC)temp
F
wind
direction
speed
MPH
gust
MPH
rain 1hr
in
rain 24hr
in
rain mn
in
humidity
%
barometer
mb
20260906224404 66 85 2.0 5.0 0.00 0.08 0.00 95 1023.3
20260906223904 66 88 2.0 6.0 0.00 0.08 0.00 95 1023.2
20260906223404 66 69 3.0 5.0 0.00 0.08 0.00 95 1023.2
20260906222904 66 77 3.0 5.0 0.00 0.08 0.00 95 1023.2
20260906222404 66 62 2.0 5.0 0.00 0.08 0.00 95 1023.2
20260906221904 66 30 2.0 3.0 0.00 0.08 0.00 95 1023.2
20260906221404 66 76 2.0 3.0 0.00 0.08 0.00 95 1023.2
20260906220904 66 71 2.0 7.0 0.00 0.08 0.00 94 1023.2
20260906220404 66 85 3.0 7.0 0.00 0.08 0.00 94 1023.1
20260906215904 66 83 3.0 7.0 0.00 0.08 0.08 94 1023.0
20260906215404 66 85 3.0 6.0 0.00 0.08 0.08 94 1023.0
20260906214904 66 71 2.0 8.0 0.00 0.08 0.08 94 1023.0
20260906214404 66 56 4.0 12.0 0.00 0.08 0.08 94 1023.0
20260906213904 66 73 3.0 10.0 0.00 0.08 0.08 94 1023.0
20260906212904 66 57 4.0 9.0 0.00 0.08 0.08 93 1023.1
20260906212404 66 70 5.0 9.0 0.00 0.08 0.08 93 1023.1
20260906210904 66 74 5.0 12.0 0.00 0.08 0.08 92 1023.0
20260906210403 67 74 3.0 9.0 0.00 0.08 0.08 92 1022.9
20260906205904 67 57 6.0 10.0 0.00 0.08 0.08 92 1022.9
20260906205404 67 52 4.0 12.0 0.00 0.08 0.08 91 1022.9
20260906204903 67 63 6.0 10.0 0.00 0.08 0.08 91 1022.9
20260906204404 67 63 7.0 12.0 0.00 0.08 0.08 91 1023.0
20260906203904 67 62 5.0 9.0 0.00 0.08 0.08 91 1023.0
20260906203404 67 75 5.0 9.0 0.00 0.08 0.08 91 1022.9
20260906202904 67 70 3.0 7.0 0.00 0.08 0.08 91 1022.8
20260906202404 67 71 4.0 9.0 0.00 0.08 0.08 91 1022.7
20260906201904 67 71 3.0 8.0 0.00 0.08 0.08 91 1022.7
20260906200904 67 65 3.0 8.0 0.00 0.08 0.08 90 1022.5
20260906200404 68 68 4.0 8.0 0.00 0.08 0.08 91 1022.5
20260906195904 68 72 3.0 9.0 0.00 0.08 0.08 90 1022.5
20260906195404 68 59 5.0 10.0 0.00 0.08 0.08 90 1022.4
20260906194904 68 64 3.0 7.0 0.00 0.08 0.08 90 1022.3
20260906194404 68 63 6.0 10.0 0.00 0.08 0.08 90 1022.3
20260906193404 68 77 5.0 7.0 0.00 0.08 0.08 90 1022.2
20260906192904 68 80 3.0 7.0 0.00 0.08 0.08 90 1022.1
20260906192404 68 79 3.0 8.0 0.00 0.08 0.08 90 1022.0
20260906191904 68 75 6.0 9.0 0.00 0.08 0.08 90 1022.0
20260906191404 69 77 7.0 9.0 0.00 0.08 0.08 89 1021.9
20260906190904 69 70 5.0 8.0 0.00 0.08 0.08 89 1021.9
20260906185404 69 67 3.0 8.0 0.00 0.08 0.08 88 1021.7
20260906184904 70 72 4.0 8.0 0.00 0.08 0.08 88 1021.7
20260906184404 70 70 7.0 9.0 0.00 0.08 0.08 88 1021.8
20260906183904 70 71 4.0 8.0 0.00 0.08 0.08 87 1021.8
20260906183404 70 66 5.0 9.0 0.00 0.08 0.08 87 1021.8
20260906182904 70 63 5.0 8.0 0.00 0.08 0.08 87 1021.7
20260906182404 70 54 2.0 7.0 0.00 0.08 0.08 87 1021.7
20260906181904 70 33 6.0 9.0 0.00 0.08 0.08 87 1021.7
20260906181404 70 58 5.0 9.0 0.00 0.08 0.08 87 1021.7
20260906180404 71 41 7.0 12.0 0.00 0.08 0.08 86 1021.8
20260906175904 71 13 5.0 12.0 0.00 0.08 0.08 86 1021.8
20260906175404 71 34 9.0 15.0 0.00 0.08 0.08 86 1021.5
20260906174904 71 54 10.0 13.0 0.00 0.08 0.08 85 1021.4
20260906174404 72 54 6.0 12.0 0.00 0.08 0.08 85 1021.4
20260906173903 71 19 6.0 12.0 0.00 0.08 0.08 86 1021.4
20260906173404 72 61 8.0 13.0 0.00 0.08 0.08 85 1021.3
20260906172904 72 34 6.0 12.0 0.00 0.08 0.08 85 1021.3
20260906172404 72 42 5.0 12.0 0.00 0.08 0.08 85 1021.2
20260906171904 72 44 9.0 15.0 0.00 0.08 0.08 84 1021.2
20260906170904 72 41 6.0 12.0 0.00 0.08 0.08 84 1021.1
20260906170404 72 44 9.0 15.0 0.00 0.08 0.08 84 1021.1
20260906165903 72 42 7.0 14.0 0.00 0.08 0.08 84 1021.1
20260906165404 72 42 8.0 12.0 0.00 0.08 0.08 84 1021.1
20260906164904 72 41 9.0 13.0 0.00 0.08 0.08 84 1021.1
20260906164404 72 36 8.0 13.0 0.00 0.08 0.08 84 1021.1
20260906163904 73 47 9.0 13.0 0.00 0.08 0.08 84 1021.0
20260906163404 73 45 10.0 15.0 0.00 0.08 0.08 83 1020.9
20260906162904 73 24 8.0 14.0 0.00 0.08 0.08 83 1020.8
20260906161904 73 48 10.0 14.0 0.00 0.08 0.08 83 1020.7
20260906160903 73 44 10.0 16.0 0.00 0.08 0.08 82 1020.6
20260906160404 73 48 8.0 14.0 0.00 0.08 0.08 83 1020.5
20260906155904 73 49 9.0 16.0 0.00 0.08 0.08 83 1020.5
20260906155403 73 50 9.0 15.0 0.00 0.08 0.08 83 1020.5
20260906154904 73 31 9.0 16.0 0.00 0.08 0.08 83 1020.4
20260906154404 73 35 11.0 17.0 0.00 0.08 0.08 82 1020.3
20260906153904 74 40 10.0 14.0 0.00 0.08 0.08 82 1020.3
20260906153404 74 30 10.0 16.0 0.00 0.08 0.08 82 1020.2
20260906152904 74 30 11.0 17.0 0.00 0.08 0.08 82 1020.1
20260906152404 74 48 9.0 16.0 0.00 0.08 0.08 82 1020.2
20260906151904 74 60 7.0 15.0 0.00 0.08 0.08 82 1020.2
20260906151404 74 57 8.0 14.0 0.00 0.08 0.08 81 1020.1
20260906150904 75 55 10.0 16.0 0.00 0.08 0.08 81 1020.0
20260906150404 75 48 7.0 12.0 0.00 0.08 0.08 81 1020.0
20260906145904 74 26 9.0 14.0 0.00 0.08 0.08 82 1019.8
20260906145404 75 57 10.0 17.0 0.00 0.08 0.08 82 1019.8
20260906144904 74 31 10.0 15.0 0.00 0.08 0.08 82 1019.8
20260906144404 74 50 11.0 16.0 0.00 0.08 0.08 82 1019.9
20260906143904 75 43 9.0 16.0 0.00 0.08 0.08 82 1019.8
20260906142904 75 52 10.0 16.0 0.00 0.08 0.08 82 1019.8
20260906141904 75 71 10.0 17.0 0.00 0.08 0.08 82 1019.6
20260906141404 75 58 10.0 16.0 0.00 0.08 0.08 82 1019.6
20260906140904 75 52 9.0 15.0 0.00 0.08 0.08 82 1019.7
20260906140403 75 65 10.0 18.0 0.00 0.08 0.08 82 1019.5
20260906135904 75 46 13.0 21.0 0.00 0.08 0.08 82 1019.5
20260906135404 75 44 14.0 20.0 0.00 0.08 0.08 81 1019.4
20260906134404 76 39 10.0 18.0 0.00 0.08 0.08 80 1019.3
20260906133904 76 55 12.0 20.0 0.00 0.08 0.08 79 1019.3
20260906133404 77 55 11.0 18.0 0.00 0.08 0.08 79 1019.3
20260906132904 77 50 11.0 17.0 0.00 0.08 0.08 79 1019.3
20260906132404 77 48 11.0 20.0 0.00 0.08 0.08 79 1019.2
20260906130404 78 39 12.0 16.0 0.00 0.08 0.08 76 1019.0
20260906125904 79 43 12.0 17.0 0.00 0.08 0.08 75 1018.9
20260906125404 79 54 10.0 18.0 0.00 0.08 0.08 75 1018.9
20260906124904 80 56 10.0 17.0 0.00 0.08 0.08 74 1018.9
20260906124404 81 54 10.0 16.0 0.00 0.08 0.08 72 1018.9
20260906123903 81 56 9.0 14.0 0.00 0.08 0.08 70 1018.9
20260906123404 82 47 6.0 12.0 0.00 0.08 0.08 70 1018.8
20260906122904 82 70 5.0 10.0 0.00 0.08 0.08 68 1018.8
20260906122404 82 47 7.0 12.0 0.00 0.08 0.08 67 1018.7
20260906121924 82 32 2.0 10.0 0.00 0.08 0.08 67 1018.7
20260906121404 82 38 6.0 12.0 0.00 0.08 0.08 66 1018.7
20260906120904 83 80 5.0 7.0 0.00 0.08 0.08 64 1018.7
20260906120404 82 77 3.0 7.0 0.00 0.08 0.08 63 1018.8
20260906115404 82 40 3.0 5.0 0.00 0.08 0.08 62 1018.8
20260906114404 82 63 3.0 5.0 0.00 0.08 0.08 62 1019.0
20260906113905 82 76 1.0 5.0 0.00 0.08 0.08 61 1019.0
20260906113404 83 78 1.0 5.0 0.00 0.08 0.08 60 1019.1
20260906112904 83 83 1.0 3.0 0.00 0.08 0.08 62 1019.0
20260906112404 82 82 1.0 3.0 0.00 0.08 0.08 62 1018.9
20260906111904 82 78 1.0 3.0 0.00 0.08 0.08 61 1019.0
20260906111404 82 83 2.0 3.0 0.00 0.08 0.08 61 1019.1
20260906110904 81 142 2.0 3.0 0.00 0.08 0.08 61 1019.1
20260906110404 81 152 3.0 5.0 0.00 0.08 0.08 61 1019.1
20260906105404 81 91 1.0 2.0 0.00 0.08 0.08 61 1019.2
20260906104904 81 91 0.0 3.0 0.00 0.08 0.08 61 1019.2
20260906103906 80 84 1.0 3.0 0.00 0.08 0.08 63 1019.1
20260906103404 80 46 1.0 3.0 0.00 0.08 0.08 62 1019.2
20260906102404 79 32 0.0 1.0 0.00 0.08 0.08 66 1019.2
20260906101904 77 32 0.0 0.0 0.00 0.08 0.08 68 1019.1
20260906101404 77 32 1.0 3.0 0.00 0.08 0.08 70 1019.2
20260906100904 76 32 2.0 6.0 0.00 0.08 0.08 71 1019.3
20260906100404 75 50 5.0 6.0 0.00 0.08 0.08 74 1019.3
20260906095904 74 54 2.0 5.0 0.00 0.08 0.08 77 1019.4
20260906095404 74 65 2.0 3.0 0.00 0.08 0.08 79 1019.4
20260906094904 73 65 1.0 3.0 0.00 0.08 0.08 80 1019.4
20260906094404 72 122 2.0 3.0 0.00 0.08 0.08 82 1019.5
20260906093404 72 140 2.0 3.0 0.01 0.08 0.08 82 1019.6
20260906092904 72 138 2.0 5.0 0.01 0.08 0.08 82 1019.7
20260906091904 71 167 6.0 10.0 0.01 0.08 0.08 83 1019.7
20260906091404 71 173 8.0 16.0 0.01 0.08 0.08 82 1019.7
20260906090904 71 156 10.0 16.0 0.01 0.08 0.08 82 1019.6
20260906090404 70 268 3.0 10.0 0.01 0.08 0.08 83 1019.2
20260906085904 70 188 5.0 12.0 0.01 0.08 0.08 84 1019.1
20260906085404 70 289 16.0 26.0 0.01 0.08 0.08 85 1019.1
20260906084904 70 265 7.0 16.0 0.01 0.08 0.08 85 1018.4
20260906084404 69 113 7.0 13.0 0.01 0.08 0.08 88 1017.8
20260906083904 67 138 9.0 14.0 0.01 0.08 0.08 91 1018.4
20260906083404 67 101 2.0 7.0 0.00 0.07 0.07 91 1019.2
20260906082404 68 297 9.0 14.0 0.07 0.07 0.07 89 1019.6
20260906081404 68 197 12.0 16.0 0.07 0.07 0.07 88 1019.7
20260906080404 69 168 3.0 7.0 0.07 0.07 0.07 88 1018.6
20260906075904 69 144 3.0 8.0 0.07 0.07 0.07 87 1018.6
20260906075407 70 105 6.0 12.0 0.07 0.07 0.07 85 1018.5
20260906074403 69 167 1.0 5.0 0.07 0.07 0.07 84 1018.7
20260906073904 69 168 0.0 5.0 0.07 0.07 0.07 85 1018.5
20260906073404 70 165 2.0 7.0 0.07 0.07 0.07 84 1018.8
20260906072904 71 62 4.0 15.0 0.07 0.07 0.07 80 1018.7
20260906072404 72 182 13.0 16.0 0.00 0.00 0.00 77 1019.5
20260906071904 71 181 8.0 12.0 0.00 0.00 0.00 77 1018.6
20260906070904 72 173 2.0 3.0 0.00 0.00 0.00 78 1017.7
20260906070404 72 173 1.0 2.0 0.00 0.00 0.00 77 1017.7
20260906065404 72 173 1.0 3.0 0.00 0.00 0.00 76 1017.9
20260906064404 72 219 2.0 3.0 0.00 0.00 0.00 77 1017.8
20260906063904 71 220 2.0 3.0 0.00 0.00 0.00 78 1017.8
20260906063404 71 274 1.0 3.0 0.00 0.00 0.00 80 1017.7
20260906062904 72 291 2.0 5.0 0.00 0.00 0.00 78 1017.7
20260906062404 73 282 3.0 8.0 0.00 0.00 0.00 75 1017.8
20260906061904 72 286 1.0 3.0 0.00 0.00 0.00 76 1017.6
20260906061404 71 221 5.0 9.0 0.00 0.00 0.00 79 1017.8
20260906060904 71 183 5.0 9.0 0.00 0.00 0.00 79 1017.6
20260906060404 71 296 2.0 8.0 0.00 0.00 0.00 78 1017.1
20260906055904 71 332 1.0 5.0 0.00 0.00 0.00 80 1017.0
20260906055404 71 330 4.0 6.0 0.00 0.00 0.00 82 1017.2
20260906054904 70 172 5.0 9.0 0.00 0.00 0.00 81 1017.3
20260906054404 70 143 3.0 7.0 0.00 0.00 0.00 83 1017.3
20260906053904 69 175 0.0 0.0 0.00 0.00 0.00 83 1017.9
20260906053404 69 175 1.0 6.0 0.00 0.00 0.00 83 1018.0
20260906052904 70 180 6.0 14.0 0.00 0.00 0.00 82 1018.2
20260906052404 71 151 5.0 12.0 0.00 0.00 0.00 78 1017.7
20260906051904 71 188 1.0 12.0 0.00 0.00 0.00 78 1017.0
20260906051404 69 226 6.0 26.0 0.00 0.00 0.00 84 1017.3
20260906050904 70 176 17.0 25.0 0.00 0.00 0.00 82 1017.5
20260906050404 69 179 6.0 10.0 0.00 0.00 0.00 85 1017.3
20260906045904 70 232 7.0 20.0 0.00 0.00 0.00 84 1017.3
20260906045404 71 272 13.0 20.0 0.00 0.00 0.00 81 1017.4
20260906044404 71 193 9.0 23.0 0.00 0.00 0.00 81 1017.4
20260906043904 71 149 3.0 9.0 0.00 0.00 0.00 81 1016.9
20260906042904 71 195 4.0 6.0 0.00 0.00 0.00 83 1017.4
20260906042404 71 186 4.0 5.0 0.00 0.00 0.00 83 1017.2
20260906041903 70 171 2.0 5.0 0.00 0.00 0.00 83 1017.0
20260906041404 70 176 3.0 3.0 0.00 0.00 0.00 85 1017.2
20260906040904 70 228 3.0 5.0 0.00 0.00 0.00 86 1017.3
20260906040404 69 229 2.0 6.0 0.00 0.00 0.00 87 1017.4
20260906035904 69 249 4.0 8.0 0.00 0.00 0.00 87 1017.5
20260906035405 70 262 6.0 9.0 0.00 0.00 0.00 86 1017.4
20260906034404 71 250 2.0 5.0 0.00 0.00 0.00 82 1017.5
20260906033904 72 260 3.0 7.0 0.00 0.00 0.00 81 1017.5
20260906032903 73 235 1.0 3.0 0.00 0.00 0.00 78 1017.2
20260906031403 73 198 1.0 3.0 0.00 0.00 0.00 77 1017.2
20260906030904 73 198 3.0 3.0 0.00 0.00 0.00 78 1017.2
20260906030404 72 192 2.0 3.0 0.00 0.00 0.00 79 1017.3
20260906025904 72 190 2.0 3.0 0.00 0.00 0.00 79 1017.2
20260906025404 72 190 2.0 5.0 0.00 0.00 0.00 80 1017.3
20260906024904 73 179 3.0 6.0 0.00 0.00 0.00 80 1017.3
20260906024404 73 178 5.0 8.0 0.00 0.00 0.00 80 1017.4
20260906023904 73 175 6.0 10.0 0.00 0.00 0.00 79 1017.4
20260906023404 74 175 6.0 10.0 0.00 0.00 0.00 78 1017.5
20260906022904 74 188 1.0 3.0 0.00 0.00 0.00 76 1017.5
20260906021904 75 186 3.0 3.0 0.00 0.00 0.00 75 1017.6
20260906021403 75 186 2.0 5.0 0.00 0.00 0.00 75 1017.6
20260906020404 75 161 3.0 5.0 0.00 0.00 0.00 74 1017.7
20260906015904 76 183 3.0 7.0 0.00 0.00 0.00 74 1017.8
20260906015404 76 190 3.0 6.0 0.00 0.00 0.00 73 1017.9
20260906014904 75 222 5.0 7.0 0.00 0.00 0.00 74 1017.9
20260906014404 75 207 4.0 7.0 0.00 0.00 0.00 75 1017.9
20260906013903 75 199 5.0 7.0 0.00 0.00 0.00 76 1018.0
20260906013404 74 180 2.0 5.0 0.00 0.00 0.00 77 1018.1
20260906012904 74 177 0.0 3.0 0.00 0.00 0.00 77 1018.2
20260906012404 74 177 2.0 3.0 0.00 0.00 0.00 77 1018.2
20260906011904 75 173 1.0 3.0 0.00 0.00 0.00 77 1018.2
20260906010404 75 155 0.0 2.0 0.00 0.00 0.00 78 1018.3
20260906005903 75 155 0.0 0.0 0.00 0.00 0.00 78 1018.3
20260906005404 75 155 0.0 0.0 0.00 0.00 0.00 78 1018.3
20260906004904 75 155 0.0 0.0 0.00 0.00 0.00 78 1018.3
20260906004404 75 155 1.0 2.0 0.00 0.00 0.00 78 1018.3
20260906003904 75 155 1.0 3.0 0.00 0.00 0.00 78 1018.4
20260906003404 75 155 1.0 3.0 0.00 0.00 0.00 78 1018.5
20260906002904 75 155 3.0 5.0 0.00 0.00 0.00 79 1018.5
20260906001404 74 154 1.0 3.0 0.00 0.00 0.00 79 1018.7
20260906000904 74 157 2.0 5.0 0.00 0.00 0.00 79 1018.8
20260906000404 75 148 2.0 5.0 0.00 0.00 0.00 80 1018.9
20260905235904 74 153 3.0 7.0 0.00 0.00 0.00 80 1018.9
20260905235405 74 157 2.0 6.0 0.00 0.00 0.00 80 1018.9
20260905234904 74 148 3.0 7.0 0.00 0.00 0.00 81 1019.0
20260905234404 74 154 2.0 3.0 0.00 0.00 0.00 81 1019.0
20260905233904 74 153 2.0 3.0 0.00 0.00 0.00 81 1019.0
20260905233404 74 157 3.0 6.0 0.00 0.00 0.00 82 1019.2
20260905232904 74 159 3.0 7.0 0.00 0.00 0.00 83 1019.2
20260905232403 74 127 4.0 7.0 0.00 0.00 0.00 84 1019.2
20260905231904 73 114 2.0 3.0 0.00 0.00 0.00 85 1019.4
20260905231404 73 135 1.0 3.0 0.00 0.00 0.00 86 1019.5
20260905230904 73 133 3.0 6.0 0.00 0.00 0.00 88 1019.5
20260905230404 72 152 3.0 6.0 0.00 0.00 0.00 90 1019.6
20260905225904 72 77 2.0 3.0 0.00 0.00 0.00 90 1019.6
20260905225404 72 75 2.0 2.0 0.00 0.00 0.00 91 1019.6
20260905224904 72 74 2.0 3.0 0.00 0.00 0.00 91 1019.7